When you browse on this site, cookies collect data to enhance your experience and personalize the content and advertising you see.
Visit our Privacy Policy to learn more. By continuing to use the site, you agree to this use of cookies and data.
  • In Deutschland
  • Länderverzeichnis
  • Für 7 Tage
  • Wassertemperatur
  • Wetterkarte
  • Widgets
  • user-avatar
    Anmelden

    Stündliche Wetter Ropotamo

    Heute, 26 Mai, Dienstag

    Zeit Temperatur Niederschläge Wind Luftdruck Luftfeuchtigkeit
    00:00 +10°C° 0 mm 2 m/S 761 mmHg 86%
    01:00 +10°C° 0 mm 2 m/S 761 mmHg 86%
    02:00 +10°C° 0 mm 2 m/S 761 mmHg 86%
    03:00 +10°C° 0 mm 2 m/S 761 mmHg 87%
    04:00 +10°C° 0 mm 2 m/S 761 mmHg 88%
    05:00 +9°C° 0 mm 2 m/S 761 mmHg 89%
    06:00 +12°C° 0 mm 2 m/S 761 mmHg 84%
    07:00 +13°C° 0 mm 3 m/S 761 mmHg 78%
    08:00 +16°C° 0 mm 3 m/S 761 mmHg 70%
    09:00 +17°C° 0.1 mm 3 m/S 761 mmHg 69%
    10:00 +17°C° 0.1 mm 3 m/S 761 mmHg 68%
    11:00 +18°C° 0.1 mm 4 m/S 761 mmHg 67%
    12:00 +18°C° 0.1 mm 4 m/S 761 mmHg 65%
    13:00 +19°C° 0.1 mm 4 m/S 760 mmHg 63%
    14:00 +19°C° 0.1 mm 4 m/S 760 mmHg 61%
    15:00 +19°C° 0 mm 4 m/S 760 mmHg 62%
    16:00 +18°C° 0 mm 4 m/S 760 mmHg 64%
    17:00 +18°C° 0 mm 4 m/S 760 mmHg 65%
    18:00 +16°C° 0 mm 3 m/S 760 mmHg 73%
    19:00 +13°C° 0 mm 3 m/S 760 mmHg 81%
    20:00 +13°C° 0 mm 2 m/S 760 mmHg 88%
    21:00 +12°C° 0 mm 2 m/S 760 mmHg 89%
    22:00 +12°C° 0 mm 2 m/S 760 mmHg 90%
    23:00 +10°C° 0 mm 2 m/S 760 mmHg 91%

    Morgen, 27 Mai, Mittwoch

    Zeit Temperatur Niederschläge Wind Luftdruck Luftfeuchtigkeit
    00:00 +10°C° 0 mm 2 m/S 760 mmHg 91%
    01:00 +10°C° 0 mm 2 m/S 760 mmHg 92%
    02:00 +10°C° 0 mm 2 m/S 760 mmHg 92%
    03:00 +10°C° 0 mm 2 m/S 760 mmHg 92%
    04:00 +10°C° 0 mm 2 m/S 760 mmHg 93%
    05:00 +10°C° 0 mm 3 m/S 760 mmHg 93%
    06:00 +11°C° 0 mm 3 m/S 760 mmHg 87%
    07:00 +13°C° 0 mm 3 m/S 761 mmHg 81%
    08:00 +16°C° 0 mm 3 m/S 761 mmHg 75%
    09:00 +17°C° 0.1 mm 4 m/S 761 mmHg 71%
    10:00 +17°C° 0.1 mm 5 m/S 761 mmHg 68%
    11:00 +19°C° 0.1 mm 5 m/S 760 mmHg 64%
    12:00 +19°C° 0.2 mm 5 m/S 760 mmHg 65%
    13:00 +19°C° 0.2 mm 5 m/S 760 mmHg 66%
    14:00 +19°C° 0.2 mm 5 m/S 760 mmHg 67%
    15:00 +17°C° 0.2 mm 5 m/S 760 mmHg 70%
    16:00 +18°C° 0.2 mm 4 m/S 760 mmHg 74%
    17:00 +17°C° 0.2 mm 3 m/S 759 mmHg 78%
    18:00 +16°C° 0 mm 2 m/S 760 mmHg 83%
    19:00 +14°C° 0 mm 2 m/S 760 mmHg 87%
    20:00 +13°C° 0 mm 1 m/S 760 mmHg 92%
    21:00 +12°C° 0 mm 1 m/S 760 mmHg 92%
    22:00 +12°C° 0 mm 2 m/S 760 mmHg 93%
    23:00 +12°C° 0 mm 2 m/S 760 mmHg 93%

    übermorgen, 28 Mai, Donnerstag

    Zeit Temperatur Niederschläge Wind Luftdruck Luftfeuchtigkeit
    00:00 +12°C° 0 mm 2 m/S 760 mmHg 93%
    01:00 +11°C° 0 mm 3 m/S 759 mmHg 94%
    02:00 +10°C° 0 mm 3 m/S 759 mmHg 94%
    03:00 +10°C° 0.1 mm 3 m/S 759 mmHg 94%
    04:00 +10°C° 0.1 mm 3 m/S 759 mmHg 95%
    05:00 +10°C° 0.1 mm 3 m/S 759 mmHg 95%
    06:00 +11°C° 0.1 mm 3 m/S 759 mmHg 91%
    07:00 +13°C° 0.1 mm 4 m/S 759 mmHg 88%
    08:00 +14°C° 0.1 mm 4 m/S 759 mmHg 85%
    09:00 +15°C° 0.4 mm 4 m/S 759 mmHg 83%
    10:00 +17°C° 0.4 mm 3 m/S 759 mmHg 82%
    11:00 +18°C° 0.4 mm 3 m/S 759 mmHg 80%
    12:00 +18°C° 0.5 mm 3 m/S 758 mmHg 78%
    13:00 +19°C° 0.5 mm 2 m/S 758 mmHg 75%
    14:00 +20°C° 0.5 mm 1 m/S 758 mmHg 72%
    15:00 +20°C° 0.2 mm 1 m/S 757 mmHg 70%
    16:00 +20°C° 0.2 mm 1 m/S 757 mmHg 69%
    17:00 +20°C° 0.2 mm 1 m/S 757 mmHg 67%
    18:00 +19°C° 0.1 mm 1 m/S 757 mmHg 73%
    19:00 +16°C° 0.1 mm 1 m/S 757 mmHg 79%
    20:00 +15°C° 0.1 mm 1 m/S 757 mmHg 84%
    21:00 +14°C° 0 mm 2 m/S 757 mmHg 85%
    22:00 +14°C° 0 mm 2 m/S 757 mmHg 86%
    23:00 +13°C° 0 mm 2 m/S 757 mmHg 87%

    29 Mai, Freitag

    Zeit Temperatur Niederschläge Wind Luftdruck Luftfeuchtigkeit
    00:00 +13°C° 0 mm 2 m/S 757 mmHg 87%
    01:00 +12°C° 0 mm 3 m/S 757 mmHg 87%
    02:00 +11°C° 0 mm 3 m/S 757 mmHg 87%
    03:00 +11°C° 0 mm 3 m/S 757 mmHg 88%
    04:00 +11°C° 0 mm 3 m/S 757 mmHg 88%
    05:00 +11°C° 0 mm 3 m/S 757 mmHg 89%
    06:00 +13°C° 0 mm 3 m/S 757 mmHg 84%
    07:00 +14°C° 0 mm 4 m/S 757 mmHg 79%
    08:00 +17°C° 0 mm 4 m/S 757 mmHg 75%
    09:00 +18°C° 0.5 mm 4 m/S 757 mmHg 77%
    10:00 +19°C° 0.5 mm 3 m/S 757 mmHg 78%
    11:00 +19°C° 0.5 mm 3 m/S 757 mmHg 80%
    12:00 +19°C° 1 mm 2 m/S 757 mmHg 80%
    13:00 +19°C° 1 mm 2 m/S 757 mmHg 79%
    14:00 +20°C° 1 mm 1 m/S 756 mmHg 78%
    15:00 +20°C° 0.6 mm 1 m/S 756 mmHg 79%
    16:00 +20°C° 0.6 mm 1 m/S 756 mmHg 79%
    17:00 +20°C° 0.6 mm 1 m/S 756 mmHg 80%
    18:00 +19°C° 0.3 mm 1 m/S 756 mmHg 82%
    19:00 +16°C° 0.3 mm 1 m/S 756 mmHg 84%
    20:00 +15°C° 0.3 mm 2 m/S 757 mmHg 86%
    21:00 +15°C° 0 mm 2 m/S 757 mmHg 87%
    22:00 +14°C° 0 mm 2 m/S 757 mmHg 88%
    23:00 +13°C° 0 mm 3 m/S 757 mmHg 89%

    30 Mai, Samstag

    Zeit Temperatur Niederschläge Wind Luftdruck Luftfeuchtigkeit
    00:00 +14°C° 0 mm 2 m/S 757 mmHg 89%
    01:00 +13°C° 0 mm 2 m/S 757 mmHg 90%
    02:00 +13°C° 0 mm 2 m/S 757 mmHg 90%
    03:00 +13°C° 0 mm 2 m/S 757 mmHg 90%
    04:00 +13°C° 0 mm 2 m/S 757 mmHg 89%
    05:00 +13°C° 0 mm 2 m/S 757 mmHg 89%
    06:00 +14°C° 0 mm 2 m/S 757 mmHg 86%
    07:00 +14°C° 0 mm 3 m/S 757 mmHg 83%
    08:00 +16°C° 0 mm 3 m/S 757 mmHg 80%
    09:00 +18°C° 0 mm 2 m/S 757 mmHg 75%
    10:00 +19°C° 0 mm 2 m/S 758 mmHg 69%
    11:00 +20°C° 0 mm 2 m/S 758 mmHg 63%
    12:00 +19°C° 0.4 mm 2 m/S 757 mmHg 69%
    13:00 +19°C° 0.4 mm 2 m/S 757 mmHg 75%
    14:00 +18°C° 0.4 mm 2 m/S 757 mmHg 82%
    15:00 +17°C° 0.7 mm 2 m/S 757 mmHg 86%
    16:00 +17°C° 0.7 mm 2 m/S 757 mmHg 90%
    17:00 +16°C° 0.7 mm 2 m/S 757 mmHg 94%
    18:00 +15°C° 0.6 mm 2 m/S 757 mmHg 94%
    19:00 +15°C° 0.6 mm 2 m/S 757 mmHg 94%
    20:00 +14°C° 0.6 mm 2 m/S 757 mmHg 94%
    21:00 +14°C° 0.3 mm 2 m/S 757 mmHg 94%
    22:00 +12°C° 0.3 mm 3 m/S 757 mmHg 94%
    23:00 +11°C° 0.3 mm 3 m/S 758 mmHg 94%

    31 Mai, Sonntag

    Zeit Temperatur Niederschläge Wind Luftdruck Luftfeuchtigkeit
    00:00 +10°C° 0 mm 3 m/S 758 mmHg 94%
    01:00 +10°C° 0 mm 3 m/S 757 mmHg 93%
    02:00 +9°C° 0 mm 3 m/S 757 mmHg 93%
    03:00 +9°C° 0 mm 3 m/S 757 mmHg 93%
    04:00 +9°C° 0 mm 3 m/S 758 mmHg 92%
    05:00 +9°C° 0 mm 2 m/S 758 mmHg 91%
    06:00 +12°C° 0 mm 2 m/S 758 mmHg 86%
    07:00 +14°C° 0 mm 2 m/S 758 mmHg 80%
    08:00 +16°C° 0 mm 2 m/S 758 mmHg 74%
    09:00 +18°C° 0 mm 2 m/S 758 mmHg 68%
    10:00 +19°C° 0 mm 3 m/S 758 mmHg 61%
    11:00 +20°C° 0 mm 3 m/S 758 mmHg 55%
    12:00 +21°C° 0 mm 3 m/S 758 mmHg 54%
    13:00 +21°C° 0 mm 3 m/S 758 mmHg 54%
    14:00 +23°C° 0 mm 2 m/S 758 mmHg 54%
    15:00 +21°C° 0 mm 2 m/S 758 mmHg 57%
    16:00 +21°C° 0 mm 2 m/S 757 mmHg 60%
    17:00 +21°C° 0 mm 2 m/S 757 mmHg 62%
    18:00 +19°C° 0 mm 2 m/S 757 mmHg 70%
    19:00 +17°C° 0 mm 2 m/S 757 mmHg 78%
    20:00 +15°C° 0 mm 2 m/S 757 mmHg 85%
    21:00 +15°C° 0 mm 2 m/S 758 mmHg 85%
    22:00 +14°C° 0 mm 2 m/S 758 mmHg 85%
    23:00 +14°C° 0 mm 2 m/S 758 mmHg 86%
    Mehr zeigen